Location: Newark
(33.6333°S, 78.8500°W)
Time: 20:00:01
(UTC+00:00)

Courier 1B - Pass Details

Date: 26 September 2019
Orbit: 962 x 1209 km, 28.3° (Epoch: 19 October)

Event Time Altitude Azimuth Distance (km) Brightness Sun altitude
Rises 19:50:01 0° 308° (NW) 4,097 11.6 40.0°
Reaches altitude 10° 19:53:06 10° 315° (NW) 3,142 11.3 39.5°
Maximum altitude 20:00:11 37° 19° (NNE) 1,767 9.4 38.2°
Drops below altitude 10° 20:07:10 10° 83° (E) 3,097 9.8 36.9°
Sets 20:10:10 0° 91° (E) 4,033 10.3 36.4°
